Regional Weather Roundup
Issued by NWS Nashville, TN

Home | Current Version | Previous Version | Text Only | Print | Product List | Glossary On
Versions: 1 2 3 4 5 6 7 8 9 10 11 12 13 14 15 16 17 18 19 20 21 22 23 24 25 26 27 28 29 30 31 32 33 34 35 36 37 38 39 40 41 42 43 44 45 46 47 48 49 50
000
ASUS44 KOHX 291010
RWROHX
MIDDLE TENNESSEE HOURLY WEATHER ROUNDUP
NATIONAL WEATHER SERVICE NASHVILLE TN
500 AM CDT WED JUL 29 2015

NOTE: "FAIR" INDICATES FEW OR NO CLOUDS BELOW 12,000 FEET WITH
NO SIGNIFICANT WEATHER AND/OR OBSTRUCTIONS TO VISIBILITY.

* THESE REPORTS ARE NOT UNDER NWS QUALITY CONTROL AND MAY NOT
  REPORT WEATHER SUCH AS PRECIPITATION AND FOG.


TNZ005>011-023>034-057-059-062>066-078-080-291100
...NORTHERN MIDDLE TENNESSEE...

CITY           SKY/WX    TMP DP  RH WIND       PRES   REMARKS
CLARKSVILLE    CLEAR     72  71  97 CALM      29.99R
CROSSVILLE     PTCLDY    71  67  87 CALM      30.07R
DICKSON        CLEAR     72  72 100 CALM      30.00R
LIVINGSTON     PTCLDY    72  69  90 SW5       30.04R
NASHVILLE      MOCLDY    73  73 100 CALM      30.00R
ROCKWOOD       CLEAR     73  69  87 N6        30.04R
SMYRNA         CLEAR     73  72  97 CALM      30.00R
$$
TNZ056-058-060-061-075>077-079-093>097-291100
...SOUTHERN MIDDLE TENNESSEE...

CITY           SKY/WX    TMP DP  RH WIND       PRES   REMARKS
LEWISBURG      MOCLDY    73  72  97 CALM      30.00R
MCMINNVILLE    CLOUDY    73  73 100 CALM      30.02S
SHELBYVILLE    CLEAR     73  73 100 CALM      30.01R
TULLAHOMA      CLEAR     72  70  94 CALM      30.03R
WINCHESTER     CLOUDY    72  72 100 CALM      30.01S
$$


...KEY TO REMARKS...
VSB - VISIBILITY IN MILES
WCI - WIND CHILL INDEX
HX  - HEAT INDEX




USA.gov is the U.S. government's official web portal to all federal, state and local government web resources and services.